South Burlington, VT

7:38 PM EDT on September 29, 2016 (GMT -0400)
Burlington International

Weather History for KBTV - April, 2002

Change the Weather History Date:

Friday, April 12, 2002

  Actual Average Record
Temperature  
Mean Temperature 57 °F 43 °F  
Max Temperature 69 °F 53 °F 82 °F (1945)
Min Temperature 46 °F 34 °F 16 °F (1926)
Degree Days  
Heating Degree Days 8 22  
Month to date heating degree days 294  
Since 1 July heating degree days 6758  
Cooling Degree Days 0 0  
Month to date cooling degree days 0  
Year to date cooling degree days 0  
Growing Degree Days 7 (Base 50)    
Moisture  
Dew Point 35 °F    
Average Humidity 46    
Maximum Humidity 75    
Minimum Humidity 29    
Precipitation  
Precipitation 0.00 in 0.10 in 1.11 in (1934)
Month to date precipitation 1.08  
Year to date precipitation 7.12  
Snow  
Snow 0.00 in 0.20 in 3.00 in (1929)
Month to date snowfall 2.6  
Since 1 July snowfall 79.2  
Snow Depth -    
Sea Level Pressure  
Sea Level Pressure 30.30 in    
Wind  
Wind Speed 19 mph (South)    
Max Wind Speed 29 mph    
Max Gust Speed 43 mph    
Visibility 10 miles    
Events      
T = Trace of Precipitation, MM = Missing Value Source: NWS Daily Summary

Daily Weather History Graph

Daily Weather History Graph

Search for Another Location

Airport or City:

Trip Planner

Search our weather history database for the weather conditions in past years. The results will help you decide how hot, cold, wet, or windy it might be!

Date:

Astronomy

Apr. 12, 2002 Rise Set
Actual Time 6:14 AM EDT 7:33 PM EDT
Civil Twilight 5:44 AM EDT 8:03 PM EDT
Nautical Twilight 5:07 AM EDT 8:39 PM EDT
Astronomical Twilight 4:29 AM EDT 9:18 PM EDT
Moon 6:33 AM EDT (4/12) 7:28 PM EDT (4/12)
Length of Visible Light 14h 19m
Length of Day
13h 19m
Waning Crescent, 0% of the Moon is Illuminated
Apr 12
Waning Crescent
Apr 12
New
Apr 20
First Quarter
Apr 26
Full
May 4
Last Quarter

Hourly Weather History & Observations

Time (EDT) Temp. Windchill Dew Point Humidity Pressure Visibility Wind Dir Wind Speed Gust Speed Precip Events Conditions
12:54 AM 52.0 °F - 30.9 °F 45% 30.47 in 10.0 mi South 13.8 mph 24.2 mph N/A   Clear
1:54 AM 51.1 °F - 30.9 °F 46% 30.45 in 10.0 mi South 19.6 mph 27.6 mph N/A   Clear
2:54 AM 48.9 °F - 30.9 °F 50% 30.45 in 10.0 mi South 17.3 mph 26.5 mph N/A   Clear
3:54 AM 46.9 °F - 30.9 °F 54% 30.43 in 10.0 mi South 12.7 mph 20.7 mph N/A   Clear
4:54 AM 46.9 °F - 30.0 °F 52% 30.42 in 10.0 mi South 13.8 mph 19.6 mph N/A   Clear
5:54 AM 46.9 °F - 26.1 °F 44% 30.41 in 10.0 mi South 17.3 mph 21.9 mph N/A   Clear
6:54 AM 46.0 °F 38.8 °F 25.0 °F 44% 30.42 in 10.0 mi South 18.4 mph - N/A   Scattered Clouds
7:54 AM 46.9 °F - 24.1 °F 41% 30.43 in 10.0 mi South 17.3 mph 24.2 mph N/A   Scattered Clouds
8:54 AM 50.0 °F - 23.0 °F 35% 30.40 in 10.0 mi South 25.3 mph 36.8 mph N/A   Scattered Clouds
9:54 AM 53.1 °F - 28.9 °F 40% 30.38 in 10.0 mi South 27.6 mph 38.0 mph N/A   Partly Cloudy
10:54 AM 57.0 °F - 30.0 °F 36% 30.35 in 10.0 mi South 25.3 mph 35.7 mph N/A   Clear
11:54 AM 61.0 °F - 30.0 °F 31% 30.32 in 10.0 mi South 28.8 mph 38.0 mph N/A   Clear
12:54 PM 63.0 °F - 30.0 °F 29% 30.27 in 10.0 mi South 26.5 mph 42.6 mph N/A   Clear
1:54 PM 66.9 °F - 35.1 °F 31% 30.25 in 10.0 mi South 25.3 mph 38.0 mph N/A   Clear
2:54 PM 68.0 °F - 36.0 °F 31% 30.22 in 10.0 mi South 28.8 mph 34.5 mph N/A   Clear
3:54 PM 68.0 °F - 37.0 °F 32% 30.20 in 10.0 mi South 19.6 mph 27.6 mph N/A   Scattered Clouds
4:54 PM 68.0 °F - 37.9 °F 33% 30.19 in 10.0 mi South 24.2 mph 29.9 mph N/A   Mostly Cloudy
5:54 PM 66.9 °F - 42.1 °F 40% 30.17 in 10.0 mi South 13.8 mph - N/A   Mostly Cloudy
6:54 PM 64.9 °F - 45.0 °F 48% 30.16 in 10.0 mi South 17.3 mph 31.1 mph N/A   Mostly Cloudy
7:54 PM 63.0 °F - 48.0 °F 58% 30.15 in 10.0 mi South 23.0 mph 28.8 mph N/A   Mostly Cloudy
8:54 PM 61.0 °F - 46.9 °F 60% 30.16 in 10.0 mi South 17.3 mph 26.5 mph N/A   Scattered Clouds
9:54 PM 59.0 °F - 48.9 °F 69% 30.14 in 10.0 mi South 23.0 mph 34.5 mph N/A   Clear
10:54 PM 57.9 °F - 50.0 °F 75% 30.14 in 10.0 mi South 24.2 mph 34.5 mph N/A   Clear
11:54 PM 57.9 °F - 50.0 °F 75% 30.13 in 10.0 mi South 25.3 mph 33.4 mph N/A   Scattered Clouds